Weather History for Mammoth, CA

Change the Weather History Date:

Tuesday, June 25, 2013

  Actual Average Record
Temperature  
Mean Temperature 58 °F -  
Max Temperature 75 °F 74 °F 84 °F (2002)
Min Temperature 41 °F 61 °F 33 °F (2011)
Degree Days  
Heating Degree Days 7    
Growing Degree Days 8 (Base 50)    
Moisture  
Dew Point 40 °F    
Average Humidity 54    
Maximum Humidity 87    
Minimum Humidity 25    
Precipitation  
Precipitation 0.00 in - - ()
Sea Level Pressure  
Sea Level Pressure 30.17 in    
Wind  
Wind Speed 7 mph (WSW)    
Max Wind Speed 23 mph    
Max Gust Speed 37 mph    
Visibility 10 miles    
Events      
Averages and records for this station are not official NWS values.
T = Trace of Precipitation, MM = Missing Value Source: NWS Daily Summary

Daily Weather History Graph

Daily Weather History Graph

Search for Another Location

Airport:

Trip Planner

Search our weather history database for the weather conditions in past years. The results will help you decide how hot, cold, wet, or windy it might be!

Date:

Astronomy

Jun. 25, 2013 Rise Set
Actual Time 5:35 AM PDT 8:20 PM PDT
Civil Twilight 5:04 AM PDT 8:52 PM PDT
Nautical Twilight 4:25 AM PDT 9:31 PM PDT
Astronomical Twilight 3:40 AM PDT 10:15 PM PDT
Moon 10:13 PM PDT (6/25) 8:17 AM PDT (6/25)
Length of Visible Light 15h 47m
Length of Day
14h 45m
Waning Gibbous, 92% of the Moon is Illuminated
Jun 25
Waning Gibbous
Jun 29
Last Quarter
Jul 8
New
Jul 15
First Quarter
Jul 22
Full

Hourly Weather History & Observations

Time (PDT) Temp. Windchill Dew Point Humidity Pressure Visibility Wind Dir Wind Speed Gust Speed Precip Events Conditions
12:15 AM 48.2 °F - 41.0 °F 76% 30.11 in 10.0 mi SW 6.9 mph - N/A   Overcast
12:35 AM 48.2 °F - 41.0 °F 76% 30.11 in 10.0 mi Calm Calm - N/A   Overcast
12:55 AM 48.2 °F - 41.0 °F 76% 30.11 in 10.0 mi Calm Calm - N/A   Overcast
1:15 AM 48.2 °F - 41.0 °F 76% 30.11 in 10.0 mi Calm Calm - N/A   Mostly Cloudy
1:35 AM 46.4 °F - 39.2 °F 76% 30.11 in 10.0 mi Calm Calm - N/A   Mostly Cloudy
1:55 AM 44.6 °F - 37.4 °F 76% 30.11 in 10.0 mi Calm Calm - N/A   Scattered Clouds
2:15 AM 44.6 °F 40.2 °F 39.2 °F 81% 30.11 in 10.0 mi South 8.1 mph - N/A   Clear
2:35 AM 44.6 °F 41.4 °F 39.2 °F 81% 30.11 in 10.0 mi SSW 5.8 mph - N/A   Clear
2:55 AM 44.6 °F - 39.2 °F 81% 30.11 in 10.0 mi Calm Calm - N/A   Clear
3:15 AM 44.6 °F - 39.2 °F 81% 30.11 in 10.0 mi Calm Calm - N/A   Clear
3:35 AM 42.8 °F - 37.4 °F 81% 30.11 in 10.0 mi Calm Calm - N/A   Scattered Clouds
3:55 AM 41.0 °F 37.1 °F 35.6 °F 81% 30.12 in 10.0 mi North 5.8 mph - N/A   Scattered Clouds
4:15 AM 42.8 °F - 37.4 °F 81% 30.12 in 10.0 mi Calm Calm - N/A   Scattered Clouds
4:35 AM 42.8 °F - 39.2 °F 87% 30.12 in 10.0 mi Calm Calm - N/A   Scattered Clouds
4:55 AM 46.4 °F 44.3 °F 41.0 °F 81% 30.12 in 10.0 mi NNW 4.6 mph - N/A   Mostly Cloudy
5:15 AM 44.6 °F 41.4 °F 41.0 °F 87% 30.12 in 10.0 mi North 5.8 mph - N/A   Scattered Clouds
5:35 AM 46.4 °F - 41.0 °F 81% 30.13 in 10.0 mi Calm Calm - N/A   Scattered Clouds
5:55 AM 46.4 °F - 39.2 °F 76% 30.14 in 10.0 mi Calm Calm - N/A   Scattered Clouds
6:15 AM 46.4 °F 45.2 °F 41.0 °F 81% 30.13 in 10.0 mi South 3.5 mph - N/A   Scattered Clouds
6:35 AM 46.4 °F - 41.0 °F 81% 30.14 in 10.0 mi Calm Calm - N/A   Scattered Clouds
6:55 AM 50.0 °F - 42.8 °F 76% 30.15 in 10.0 mi Calm Calm - N/A   Mostly Cloudy
7:15 AM 50.0 °F - 42.8 °F 76% 30.14 in 10.0 mi Calm Calm - N/A   Mostly Cloudy
7:35 AM 51.8 °F - 42.8 °F 71% 30.14 in 10.0 mi SSE 4.6 mph - N/A   Scattered Clouds
7:55 AM 55.4 °F - 42.8 °F 63% 30.16 in 10.0 mi East 4.6 mph - N/A   Scattered Clouds
8:15 AM 55.4 °F - 42.8 °F 63% 30.16 in 10.0 mi Calm Calm - N/A   Mostly Cloudy
8:35 AM 57.2 °F - 42.8 °F 59% 30.16 in 10.0 mi East 4.6 mph - N/A   Mostly Cloudy
8:55 AM 60.8 °F - 42.8 °F 52% 30.16 in 10.0 mi NW 6.9 mph - N/A   Overcast
9:15 AM 62.6 °F - 39.2 °F 42% 30.16 in 10.0 mi South 5.8 mph 18.4 mph N/A   Mostly Cloudy
9:35 AM 64.4 °F - 37.4 °F 37% 30.17 in 10.0 mi SSW 11.5 mph 26.5 mph N/A   Mostly Cloudy
9:55 AM 64.4 °F - 37.4 °F 37% 30.17 in 10.0 mi West 5.8 mph - N/A   Overcast
10:15 AM 66.2 °F - 39.2 °F 37% 30.17 in 10.0 mi SSW 4.6 mph 18.4 mph N/A   Overcast
10:35 AM 68.0 °F - 37.4 °F 33% 30.17 in 10.0 mi SSW 16.1 mph 28.8 mph N/A   Scattered Clouds
10:55 AM 68.0 °F - 37.4 °F 33% 30.17 in 10.0 mi SW 18.4 mph 31.1 mph N/A   Clear
11:15 AM 68.0 °F - 37.4 °F 33% 30.17 in 10.0 mi SSW 16.1 mph 32.2 mph N/A   Clear
11:35 AM 69.8 °F - 37.4 °F 31% 30.18 in 10.0 mi SW 17.3 mph 28.8 mph N/A   Clear
11:55 AM 69.8 °F - 35.6 °F 28% 30.18 in 10.0 mi SW 18.4 mph 29.9 mph N/A   Clear
12:15 PM 71.6 °F - 35.6 °F 27% 30.17 in 10.0 mi SW 8.1 mph 27.6 mph N/A   Clear
12:35 PM 71.6 °F - 35.6 °F 27% 30.18 in 10.0 mi SW 17.3 mph 32.2 mph N/A   Clear
12:55 PM 73.4 °F - 35.6 °F 25% 30.18 in 10.0 mi SSW 20.7 mph 26.5 mph N/A   Clear
1:15 PM 71.6 °F - 35.6 °F 27% 30.18 in 10.0 mi WSW 13.8 mph 29.9 mph N/A   Clear
1:35 PM 73.4 °F - 37.4 °F 27% 30.19 in 10.0 mi WSW 10.4 mph 28.8 mph N/A   Clear
1:55 PM 73.4 °F - 37.4 °F 27% 30.18 in 10.0 mi West 20.7 mph 36.8 mph N/A   Clear
2:15 PM 75.2 °F - 37.4 °F 25% 30.19 in 10.0 mi SW 16.1 mph 29.9 mph N/A   Clear
2:35 PM 73.4 °F - 39.2 °F 29% 30.19 in 10.0 mi WSW 9.2 mph 29.9 mph N/A   Clear
2:55 PM 73.4 °F - 39.2 °F 29% 30.19 in 10.0 mi SW 17.3 mph 27.6 mph N/A   Clear
3:15 PM 71.6 °F - 39.2 °F 31% 30.19 in 10.0 mi WSW 13.8 mph 32.2 mph N/A   Clear
3:35 PM 71.6 °F - 41.0 °F 33% 30.18 in 10.0 mi West 16.1 mph 31.1 mph N/A   Clear
3:55 PM 73.4 °F - 39.2 °F 29% 30.18 in 10.0 mi SW 23.0 mph 28.8 mph N/A   Clear
4:15 PM 73.4 °F - 37.4 °F 27% 30.18 in 10.0 mi WSW 19.6 mph 25.3 mph N/A   Clear
4:35 PM 73.4 °F - 37.4 °F 27% 30.18 in 10.0 mi SW 20.7 mph 32.2 mph N/A   Clear
4:55 PM 71.6 °F - 37.4 °F 29% 30.18 in 10.0 mi SW 11.5 mph 26.5 mph N/A   Clear
5:15 PM 73.4 °F - 37.4 °F 27% 30.19 in 10.0 mi SW 13.8 mph 27.6 mph N/A   Clear
5:35 PM 73.4 °F - 37.4 °F 27% 30.18 in 10.0 mi WSW 12.7 mph 26.5 mph N/A   Clear
5:55 PM 71.6 °F - 39.2 °F 31% 30.18 in 10.0 mi West 18.4 mph 24.2 mph N/A   Scattered Clouds
6:15 PM 69.8 °F - 41.0 °F 35% 30.19 in 10.0 mi WNW 21.9 mph 27.6 mph N/A   Scattered Clouds
6:35 PM 69.8 °F - 41.0 °F 35% 30.19 in 10.0 mi WNW 15.0 mph 19.6 mph N/A   Clear
6:55 PM 68.0 °F - 42.8 °F 40% 30.20 in 10.0 mi WNW 12.7 mph 21.9 mph N/A   Clear
7:15 PM 66.2 °F - 42.8 °F 43% 30.20 in 10.0 mi WNW 13.8 mph 21.9 mph N/A   Clear
7:35 PM 64.4 °F - 42.8 °F 45% 30.20 in 10.0 mi West 10.4 mph 20.7 mph N/A   Clear
7:55 PM 62.6 °F - 44.6 °F 52% 30.21 in 10.0 mi NW 15.0 mph 25.3 mph N/A   Clear
8:15 PM 60.8 °F - 44.6 °F 55% 30.21 in 10.0 mi WNW 18.4 mph 26.5 mph N/A   Clear
8:35 PM 60.8 °F - 44.6 °F 55% 30.22 in 10.0 mi West 17.3 mph 25.3 mph N/A   Clear
8:55 PM 59.0 °F - 44.6 °F 59% 30.22 in 10.0 mi West 18.4 mph 21.9 mph N/A   Clear
9:15 PM 59.0 °F - 46.4 °F 63% 30.22 in 10.0 mi West 16.1 mph 21.9 mph N/A   Clear
9:35 PM 59.0 °F - 46.4 °F 63% 30.23 in 10.0 mi WSW 6.9 mph 21.9 mph N/A   Clear
9:55 PM 57.2 °F - 46.4 °F 67% 30.24 in 10.0 mi West 16.1 mph 23.0 mph N/A   Clear
10:15 PM 57.2 °F - 44.6 °F 63% 30.24 in 10.0 mi WNW 3.5 mph - N/A   Clear
10:35 PM 55.4 °F - 44.6 °F 67% 30.25 in 10.0 mi Calm Calm - N/A   Clear
10:55 PM 53.6 °F - 42.8 °F 67% 30.24 in 10.0 mi Calm Calm - N/A   Clear
11:15 PM 51.8 °F - 42.8 °F 71% 30.24 in 10.0 mi Calm Calm - N/A   Clear
11:35 PM 51.8 °F - 41.0 °F 67% 30.24 in 10.0 mi SSW 4.6 mph - N/A   Clear
11:55 PM 50.0 °F - 41.0 °F 71% 30.24 in 10.0 mi Calm Calm - N/A   Clear